Regional Weather Roundup
Issued by NWS

Home | Current Version | Previous Version | Graphics & Text | Print | Product List | Glossary On
Versions: 1 2 3 4 5 6 7 8 9 10 11 12 13 14 15 16 17 18 19 20 21 22 23 24 25 26 27 28 29 30 31 32 33 34 35 36 37 38 39 40 41 42 43 44 45 46 47 48 49 50
000
ASUS43 KBIS 282301
RWRND

NORTH DAKOTA REGIONAL WEATHER ROUNDUP
NATIONAL WEATHER SERVICE BISMARCK ND
600 PM CDT SAT MAR 28 2015

NOTE: "FAIR" INDICATES FEW OR NO CLOUDS BELOW 12,000 FEET WITH NO
SIGNIFICANT WEATHER AND/OR OBSTRUCTIONS TO VISIBILITY.


NDZ001>003-009>011-017-290000-
NORTHWEST NORTH DAKOTA

CITY           SKY/WX    TMP DP  RH WIND       PRES   REMARKS
WILLISTON      LGT RAIN  67  44  43 W32G56    29.46R
MINOT          CLOUDY    67  39  35 S24G35    29.42F
MINOT AFB      CLOUDY    66  46  47 S25       29.40F
$$

NDZ018>021-031>035-040>046-290000-
SOUTHWEST NORTH DAKOTA

CITY           SKY/WX    TMP DP  RH WIND       PRES   REMARKS
BISMARCK       PTSUNNY   65  36  34 S23       29.57F
DICKINSON      MOSUNNY   76  35  22 S15       29.44F
GARRISON         N/A     66  39  37 S23       29.45F
HETTINGER ARPT MOSUNNY   78  30  17 S15G24    29.52F
$$

NDZ004>008-012>016-024-026-027-054-290000-
NORTHEAST NORTH DAKOTA

CITY           SKY/WX    TMP DP  RH WIND       PRES   REMARKS
GRAND FORKS    PTSUNNY   50  32  50 S30G39    29.73F
DEVILS LAKE    PTSUNNY   48  37  66 S18G29    29.60F
$$

NDZ022-023-025-028>030-036>039-047>053-290000-
SOUTHEAST NORTH DAKOTA

CITY           SKY/WX    TMP DP  RH WIND       PRES   REMARKS
FARGO          MOSUNNY   54  29  38 S23G33    29.79F
JAMESTOWN      SUNNY     53  34  48 S28G37    29.67F
$$




USA.gov is the U.S. government's official web portal to all federal, state and local government web resources and services.